Preview of NWS' New Version of Forecast
This preview is not operational and should not be used for support decisions.
Latest weather observations around

Mountain Home, Baxter County Regional Airport (KBPK)

Using English Units (Switch to International System of Units)
Date/ Time (CDT) Wind (mph) Vis. (mi) Weather Sky Cond. Temp (°F) Rel. Humidity Wind Chill (°F) Heat Index (°F) Pressure Precip. (in)
Air Dwpt 6 hour Altimeter (inHg) Sea level (inHg) 1 hr 3 hr 6 hr
Max Min
Apr 22 23:53 5 10 Cloudy OVC006 52 52     100%     29.9 29.9      
Apr 22 22:53 5 10 Cloudy OVC008 53 52     96%     29.91 29.91      
Apr 22 21:53 3 10 Cloudy OVC007 53 52     96%     29.92 29.91   0  
Apr 22 20:53 3 9 Cloudy BKN007 OVC015 53 53     100%     29.91 29.91 0    
Apr 22 20:40 N 3 9 Cloudy BKN008 OVC013 53 53     100%     29.91   0    
Apr 22 20:09 NNE 3 10 Cloudy BKN010 OVC013 54 53     97%     29.91        
Apr 22 20:02 N 5 10 Cloudy BKN008 BKN015 OVC023 54 53     97%     29.9        
Apr 22 19:53 NNE 3 10 Cloudy SCT008 BKN013 OVC023 54 53     97%     29.9 29.89      
Apr 22 19:49 N 3 10 Cloudy FEW008 BKN013 OVC023 55 54     94%     29.9        
Apr 22 19:24 Calm 10 Cloudy SCT010 SCT014 OVC023 55 53     93%     29.89        
Apr 22 18:53 3 10 Cloudy BKN014 OVC019 56 53     90%     29.89 29.88     0
Apr 22 18:44 3 10 Cloudy BKN014 OVC020 56 53     90%     29.89        
Apr 22 17:53 3 10 Cloudy BKN017 BKN021 OVC026 57 53     87%     29.9 29.89      
Apr 22 16:53 6 10 Cloudy OVC018 57 52     83%     29.89 29.88      
Apr 22 15:53 NNE 10 10 Cloudy BKN018 OVC023 59 52     78%     29.89 29.88   0  
Apr 22 15:00 7 10 Cloudy BKN015 OVC021 61 55     81%     29.91        
Apr 22 14:53 E 9 10 Mostly Cloudy BKN013 BKN021 61 55     81%     29.91 29.9 0    
Apr 22 14:43 5 10 Mostly Cloudy BKN013 59 54     83%     29.92   0    
Apr 22 13:53 7 10 Light Rain FEW007 BKN050 OVC070 58 57     97%     29.91 29.9 0    
Apr 22 12:53 ENE 8 9 Light Rain FEW060 OVC080 53 53     100%     29.93 29.93 0   1
Apr 22 11:53 NE 5 6 Rain and Fog/Mist BKN050 OVC060 52 52     100%     29.96 29.96 0    
Apr 22 11:25 Calm 4 Rain and Fog/Mist OVC055 52 52     100%     29.97   0    
Apr 22 11:16 3 2.5 Heavy Rain and Fog/Mist OVC050 52 52     100%     29.96   0    
Apr 22 10:53 NE 3 6 Rain and Fog/Mist OVC055 52 52     100%     29.96 29.95 0    
Apr 22 10:00 ENE 6 4 Rain and Fog/Mist BKN046 OVC055 52 52     100%     29.95   0    
Apr 22 09:53 NE 3 2.5 Heavy Rain and Fog/Mist BKN046 OVC055 52 52     100%     29.95 29.94 0 1  
Apr 22 09:24 N 5 2.5 Rain and Fog/Mist FEW030 OVC042 51 51     100%     29.96   0    
Apr 22 09:17 Calm 1.75 Heavy Rain and Fog/Mist FEW030 BKN038 OVC045 51 51     100%     29.97   0    
Apr 22 09:08 Calm 1.25 Heavy Rain and Fog/Mist FEW007 BKN029 OVC043 51 51     100%     29.97   0    
Apr 22 08:58 3 0.75 Heavy Rain and Fog/Mist SCT004 BKN033 OVC041 52 52     100%     29.98   0    
Apr 22 08:53 NW 6 1 Heavy Rain and Fog/Mist BKN004 BKN012 OVC033 52 52     100%     29.98 29.96 0    
Apr 22 08:48 WNW 6 1.75 Heavy Rain and Fog/Mist BKN004 OVC022 54 54     100%     29.98   0    
Apr 22 07:53 E 9 5 Light Rain and Fog/Mist OVC005 54 54     100%     29.95 29.94 0    
Apr 22 06:53 E 8 5 Rain and Fog/Mist OVC006 54 54     100%     29.96 29.95 0   0
Apr 22 05:53 E 6 10 Light Rain OVC009 55 54     96%     29.95 29.94 0    
Apr 22 05:22 E 7 10 Cloudy OVC009 55 54     96%     29.95        
Apr 22 04:53 E 5 10 Cloudy OVC011 55 54     96%     29.95 29.94      
Apr 22 04:34 ESE 8 10 Cloudy OVC013 55 54     96%     29.96        
Apr 22 04:16 E 7 10 Cloudy BKN015 OVC100 55 54     96%     29.96        
Apr 22 03:14 SSE 5 10 Cloudy BKN017 BKN042 OVC055 56 53     90%     29.98   0    
Apr 22 02:53 SE 3 10 Light Rain SCT040 BKN049 OVC090 56 53     90%     29.99 29.97 0    
Apr 22 01:53 SSE 9 10 Mostly Clear FEW085 57 51     81%     30.01 29.99      
Apr 22 00:53 SE 11 10 Cloudy OVC080 57 50     77%     30.02 30 0   0
Apr 21 22:53 SE 6 10 Cloudy OVC075 61 43     52%     30.04 30.03      
Apr 21 21:53 ESE 5 10 Cloudy OVC080 61 43     52%     30.05 30.04   0  
Apr 21 19:53 SE 9 10 Cloudy OVC110 64 42     45%     30.03 30.02      
Apr 21 18:53 SE 10 10 Clear CLR 65 41     42%     30.04 30.03      
Apr 21 17:53 SSE 10 10 Mostly Clear FEW110 65 40     40%     30.08 30.07      
Apr 21 16:53 SSE 9 10 Clear CLR 67 39     36%     30.09 30.08      
Apr 21 15:53 SSE 13 10 Clear CLR 69 38     32%     30.09 30.09      
Apr 21 14:53 SSE 11 10 Clear CLR 67 37     33%     30.08 30.07      
Apr 21 13:53 SSE 13 10 Clear CLR 68 37     32%     30.11 30.1      
Apr 21 12:53 SSE 14 10 Clear CLR 66 37     34%     30.12 30.11      
Apr 21 11:53 SE 10 10 Mostly Clear FEW120 63 35     35%     30.17 30.16      
Apr 21 10:53 6 10 Clear CLR 58 35     42%     30.2 30.2      
Apr 21 09:53 5 10 Mostly Cloudy BKN110 54 34     47%     30.19 30.19      
Apr 21 08:53 SE 13 10 Clear CLR 52 33     48%     30.2 30.2      
Apr 21 07:53 ESE 8 10 Clear CLR 48 33     56% 44   30.22 30.22      
Apr 21 05:53 E 5 10 Clear CLR 46 30     53% 44   30.22 30.22      
Apr 21 04:53 E 5 10 Clear CLR 46 30     53% 44   30.23 30.22      
Apr 21 03:53 E 3 10 Clear CLR 47 29     49% 46   30.22 30.21      
Apr 21 02:53 E 5 10 Clear CLR 47 29     49% 45   30.23 30.22      
Apr 21 01:53 ESE 7 10 Clear CLR 49 28     44% 46   30.23 30.22      
Apr 21 00:53 E 6 10 Clear CLR 50 27     41% 48   30.23 30.22      
Apr 20 22:53 ESE 8 10 Clear CLR 53 24     32%     30.24 30.23      
Apr 20 21:53 ESE 7 10 Clear CLR 54 22     28%     30.25 30.24      
Apr 20 20:53 SE 7 10 Clear CLR 56 19     23%     30.24 30.23      
Apr 20 19:53 SE 7 10 Clear CLR 59 15     18%     30.22 30.22      
Apr 20 18:53 SSE 13 10 Clear CLR 64 13     13%     30.22 30.22      
Apr 20 17:53 SSE 8 10 Clear CLR 65 17     16%     30.23 30.23      
Apr 20 16:53 SE 10 10 Clear CLR 67 17     15%     30.26 30.25      
Apr 20 14:53 SSE 10 10 Clear CLR 64 25     23%     30.31 30.3      
Apr 20 13:53 SE 9 10 Clear CLR 64 26     24%     30.34 30.33      
Apr 20 12:53 SSE 14 10 Clear CLR 61 26     26%     30.37 30.37      
Apr 20 11:53 ESE 13 10 Clear CLR 57 28     33%     30.39 30.39      
Apr 20 10:53 SE 11 10 Clear CLR 55 32     41%     30.42 30.42      
Apr 20 09:53 6 10 Clear CLR 51 34     52%     30.44 30.44      
Apr 20 08:53 ESE 9 10 Clear CLR 47 34     60% 43   30.44 30.45      
Apr 20 07:53 ENE 5 10 Clear CLR 41 33     73% 38   30.42 30.43      
Apr 20 06:53 E 5 10 Clear CLR 38 31     76% 34   30.4 30.4      
Apr 20 05:53 ENE 3 10 Clear CLR 38 31     76% 36   30.39 30.4      
Apr 20 04:53 E 6 10 Clear CLR 39 32     76% 35   30.38 30.38      
Apr 20 03:53 ESE 5 10 Clear CLR 39 33     79% 36   30.38 30.38      
Apr 20 02:53 Calm 10 Clear CLR 39 33     79%     30.39 30.39      
Apr 20 01:53 ESE 5 10 Clear CLR 42 33     70% 39   30.39 30.4      
Apr 20 00:53 ESE 5 10 Clear CLR 42 33     70% 39   30.4 30.4      
Jun 08 22:53 Calm 10 Clear CLR 64 47     54%     29.96 29.93      
Jun 08 19:53 Calm 10 Clear CLR 68 55     63%     29.95 29.93      
Notice The following observation data may not be complete
Jun 07 19:53 Calm 10 Clear CLR   51      %     30 29.98      
Jun 07 13:53 3 10 Clear CLR 78 46     32%   77 30.03 30.01      
Jun 07 10:53 5 10 Clear CLR 73 55     53%   73 30.06 30.03      
Jun 06 11:53 6 10 Clear CLR 80 65     60%   82 29.9 29.87      
Jun 06 09:53 Calm 10 Clear CLR 75 65     71%   76 29.9 29.87